Location: Clarion
(42.7316°N, 93.7330°W)
Time: 09:34:02
(UTC+00:00)

SL-4 R/B - Pass Details

Date: 22 April 2026
Orbit: 380 x 505 km, 51.6° (Epoch: 17 May)

Event Time Altitude Azimuth Distance (km) Brightness Sun altitude
Exits shadow 09:19:56 37° 304° (NW) 790 2.6 -20.4°
Maximum altitude 09:21:23 89° 24° (NNE) 499 1.7 -20.2°
Drops below altitude 10° 09:25:09 10° 124° (SE) 1,657 4.6 -19.7°
Sets 09:27:16 0° 125° (SE) 2,513 5.6 -19.4°
